Change the Weather History Date:

Thursday, March 7, 2013

  Actual Average Record
Temperature  
Mean Temperature 51 °F -  
Max Temperature 58 °F 53 °F 68 °F (2002)
Min Temperature 44 °F 40 °F 30 °F (2004)
Degree Days  
Heating Degree Days 14    
Growing Degree Days 1 (Base 50)    
Moisture  
Dew Point 32 °F    
Average Humidity 47    
Maximum Humidity 71    
Minimum Humidity 17    
Precipitation  
Precipitation 0.00 in - - ()
Sea Level Pressure  
Sea Level Pressure 30.08 in    
Wind  
Wind Speed 3 mph ()    
Max Wind Speed 10 mph    
Max Gust Speed -    
Visibility 6.2 miles    
Events      
Averages and records for this station are not official NWS values.
T = Trace of Precipitation, MM = Missing Value Source: Averaged Metar Reports

Daily Weather History Graph

Daily Weather History Graph

Search for Another Location

Airport or City:

Trip Planner

Search our weather history database for the weather conditions in past years. The results will help you decide how hot, cold, wet, or windy it might be!

Date:

Astronomy

Mar. 07, 2013 Rise Set
Actual Time 6:29 AM EET 6:02 PM EET
Civil Twilight 6:02 AM EET 6:30 PM EET
Nautical Twilight 5:30 AM EET 7:01 PM EET
Astronomical Twilight 4:58 AM EET 7:33 PM EET
Moon 3:15 AM EET (3/7) 1:26 PM EET (3/7)
Length of Visible Light 12h 27m
Length of Day
11h 33m
Waning Crescent, 23% of the Moon is Illuminated
Mar 7
Waning Crescent
Mar 11
New
Mar 19
First Quarter
Mar 27
Full
Apr 3
Last Quarter

Hourly Weather History & Observations

Time (EET) Temp. Windchill Dew Point Humidity Pressure Visibility Wind Dir Wind Speed Gust Speed Precip Events Conditions
12:20 AM 46.4 °F - 33.8 °F 62% 30.15 in - Variable 1.2 mph - N/A   Clear
12:50 AM 44.6 °F - 35.6 °F 71% 30.15 in - Variable 2.3 mph - N/A   Clear
1:20 AM 46.4 °F - 32.0 °F 57% 30.15 in - Variable 2.3 mph - N/A   Clear
1:50 AM 48.2 °F - 30.2 °F 50% 30.15 in - Variable 1.2 mph - N/A   Clear
2:00 AM 47 °F - 31 °F 41% 30.16 in 6 mi SSE 1.2 mph - -  
2:20 AM 46.4 °F - 32.0 °F 57% 30.15 in - Variable 2.3 mph - N/A   Clear
2:50 AM 44.6 °F - 30.2 °F 57% 30.12 in - Variable 1.2 mph - N/A   Clear
3:20 AM 46.4 °F - 32.0 °F 57% 30.12 in - Calm Calm - N/A   Clear
3:50 AM 46.4 °F - 33.8 °F 62% 30.12 in - Variable 2.3 mph - N/A   Clear
4:20 AM 44.6 °F - 33.8 °F 66% 30.12 in - WSW 2.3 mph - N/A   Clear
4:50 AM 46.4 °F - 33.8 °F 62% 30.12 in - Variable 2.3 mph - N/A   Clear
5:20 AM 46.4 °F 45.2 °F 33.8 °F 62% 30.12 in - WSW 3.5 mph - N/A   Clear
5:50 AM 46.4 °F - 33.8 °F 62% 30.12 in - Variable 1.2 mph - N/A   Clear
6:20 AM 46.4 °F - 33.8 °F 62% 30.12 in - Variable 1.2 mph - N/A   Clear
6:50 AM 48.2 °F - 35.6 °F 62% 30.12 in - SW 3.5 mph - N/A   Clear
7:20 AM 48.2 °F - 39.2 °F 71% 30.12 in - WSW 4.6 mph - N/A   Clear
7:50 AM 48.2 °F - 37.4 °F 66% 30.12 in - WSW 4.6 mph - N/A   Clear
8:00 AM 49 °F - 37 °F 53% 30.15 in 6 mi WSW 4.6 mph - -   Clear
8:20 AM 50.0 °F - 37.4 °F 62% 30.12 in - WSW 5.8 mph - N/A   Clear
8:50 AM 50.0 °F - 37.4 °F 62% 30.15 in 6.2 mi West 4.6 mph - N/A   Mostly Cloudy
9:20 AM 50.0 °F - 37.4 °F 62% 30.12 in 6.2 mi WSW 5.8 mph - N/A   Mostly Cloudy
9:50 AM 51.8 °F - 35.6 °F 54% 30.12 in 6.2 mi WSW 4.6 mph - N/A   Mostly Cloudy
10:20 AM 53.6 °F - 35.6 °F 51% 30.12 in 6.2 mi SSW 5.8 mph - N/A   Mostly Cloudy
10:50 AM 51.8 °F - 33.8 °F 50% 30.12 in 6.2 mi South 4.6 mph - N/A   Mostly Cloudy
11:20 AM 53.6 °F - 32.0 °F 44% 30.09 in - SSE 6.9 mph - N/A   Clear
11:50 AM 55.4 °F - 28.4 °F 36% 30.09 in 6.2 mi SE 5.8 mph - N/A   Mostly Cloudy
12:20 PM 55.4 °F - 32.0 °F 41% 30.09 in 6.2 mi ESE 5.8 mph - N/A   Mostly Cloudy
12:50 PM 55.4 °F - 33.8 °F 44% 30.06 in - ESE 6.9 mph - N/A   Clear
1:20 PM 57.2 °F - 32.0 °F 38% 30.06 in 6.2 mi ESE 4.6 mph - N/A   Mostly Cloudy
1:50 PM 57.2 °F - 26.6 °F 31% 30.06 in 6.2 mi SSE 5.8 mph - N/A   Mostly Cloudy
2:00 PM 58 °F - 25 °F 17% 30.06 in 6 mi SSE 5.8 mph - -   Scattered Clouds
2:20 PM 57.2 °F - 28.4 °F 33% 30.04 in 6.2 mi SE 3.5 mph - N/A   Mostly Cloudy
2:50 PM 57.2 °F - 28.4 °F 33% 30.04 in 6.2 mi SSE 4.6 mph - N/A   Mostly Cloudy
3:20 PM 57.2 °F - 28.4 °F 33% 30.04 in 6.2 mi South 4.6 mph - N/A   Mostly Cloudy
3:50 PM 57.2 °F - 28.4 °F 33% 30.04 in 6.2 mi SSW 4.6 mph - N/A   Mostly Cloudy
4:20 PM 55.4 °F - 32.0 °F 41% 30.04 in 6.2 mi WSW 3.5 mph - N/A   Mostly Cloudy
4:50 PM 55.4 °F - 28.4 °F 36% 30.04 in 6.2 mi Variable 2.3 mph - N/A   Mostly Cloudy
5:20 PM 55.4 °F - 30.2 °F 38% 30.01 in 6.2 mi Variable 2.3 mph - N/A   Mostly Cloudy
5:50 PM 55.4 °F - 28.4 °F 36% 30.01 in 6.2 mi Variable 2.3 mph - N/A   Mostly Cloudy
6:20 PM 55.4 °F - 24.8 °F 31% 30.01 in 6.2 mi Calm Calm - N/A   Mostly Cloudy
6:50 PM 57.2 °F - 24.8 °F 29% 30.01 in 6.2 mi Variable 2.3 mph - N/A   Overcast
7:20 PM 57.2 °F - 23.0 °F 27% 30.01 in 6.2 mi SE 4.6 mph - N/A   Mostly Cloudy
7:50 PM 55.4 °F - 26.6 °F 33% 30.01 in 6.2 mi SE 3.5 mph - N/A   Mostly Cloudy
8:00 PM 55 °F - 26 °F 20% 30.02 in 6 mi SE 3.5 mph - -   Scattered Clouds
8:20 PM 55.4 °F - 28.4 °F 36% 30.01 in 6.2 mi Variable 2.3 mph - N/A   Mostly Cloudy
8:50 PM 53.6 °F - 32.0 °F 44% 30.01 in 6.2 mi SSE 4.6 mph - N/A   Mostly Cloudy
9:20 PM 55.4 °F - 30.2 °F 38% 30.01 in 6.2 mi South 6.9 mph - N/A   Mostly Cloudy
9:50 PM 55.4 °F - 33.8 °F 44% 30.01 in 6.2 mi South 9.2 mph - N/A   Mostly Cloudy
10:20 PM 55.4 °F - 35.6 °F 47% 30.01 in 6.2 mi SSW 10.4 mph - N/A   Mostly Cloudy
10:50 PM 55.4 °F - 35.6 °F 47% 29.98 in 6.2 mi SSW 9.2 mph - N/A   Mostly Cloudy
11:20 PM 51.8 °F - 39.2 °F 62% 29.98 in 6.2 mi SSW 9.2 mph - N/A   Mostly Cloudy
11:50 PM 53.6 °F - 37.4 °F 54% 29.98 in 6.2 mi WSW 5.8 mph - N/A   Mostly Cloudy